CLUSTER II-FM7 (SAMBA)  
1 26410U 00041A   19265.19561365 -.00000036  00000-0  00000-0 0  9997
2 26410 131.3853 339.6145 4175314 175.7337   0.4171  0.44201584  9390
CLUSTER II-FM6 (SALSA)  
1 26411U 00041B   19267.40230809  .00000000  00000-0  00000+0 0  9999
2 26411 130.9451 340.7636 5286731 182.7898   0.3655  0.44216999 20390